Starlink 1564

operational
NORAD ID: 46058 Int'l Des: 2020-055 Owner: SPXS Country: US Constellation: starlink
LEOCIRCULARSTARLINK_TYPE

关于 Starlink 1564

正在加载描述...

实时位置

正在加载3D地球...

即将过境

高度历史

Altitude vs Time

uPlot chart will show altitude changes over time

两行轨道根数

1 46058U 20055AH 25260.06318333 -.00000546 00000-0 -17753-4 0 9991
2 46058 53.0542 176.5201 0001440 87.9454 272.1700 15.06385371282855
Epoch: Sep 17, 2025 • Age: 22 hours

当前状态

高度 548.6 km
速度 7.59 km/s
星下点 -2.70°S, 176.26°E
发射日期 Aug 7, 2020
运行时间 5.1 years
类型 internet

技术详情

分类 Payload
质量 260.00 kg
干质量 248.00 kg
总质量 260.00 kg
长度 0.20 m
直径 2.80 m
跨度 9.00 m
形状 Box + pan
制造商 SPXS
平台类型 Starlink
阶段状态 In Orbit
所有者/国家 SPXS/US

大型星座

Loading constellations...